Time,TemperatureF,DewpointF,PressureIn,WindDirection,WindDirectionDegrees,WindSpeedMPH,WindSpeedGustMPH,Humidity,HourlyPrecipIn,Conditions,Clouds,dailyrainin,SoftwareType,DateUTC
2013-05-04 00:02:00,42.0,40.0,30.40,ESE,119,0.0,0.0,92,0.00,,,0.00,,2013-05-04 04:02:00,
2013-05-04 00:13:00,42.0,40.0,30.40,ESE,119,0.0,0.0,92,0.00,,,0.00,,2013-05-04 04:13:00,
2013-05-04 00:23:00,42.0,40.0,30.40,ESE,119,0.0,0.0,93,0.00,,,0.00,,2013-05-04 04:23:00,
2013-05-04 00:33:00,41.0,39.0,30.39,ESE,118,0.0,0.0,92,0.00,,,0.00,,2013-05-04 04:33:00,
2013-05-04 00:42:00,41.0,39.0,30.39,ESE,118,0.0,0.0,92,0.00,,,0.00,,2013-05-04 04:42:00,
2013-05-04 00:53:00,41.0,39.0,30.39,ESE,119,0.0,0.0,93,0.00,,,0.00,,2013-05-04 04:53:00,
2013-05-04 01:02:00,40.0,38.0,30.39,ESE,119,0.0,0.0,93,0.00,,,0.00,,2013-05-04 05:02:00,
2013-05-04 01:12:00,40.0,38.0,30.39,ESE,119,0.0,0.0,93,0.00,,,0.00,,2013-05-04 05:12:00,
2013-05-04 01:22:00,40.0,38.0,30.38,ESE,119,0.0,0.0,93,0.00,,,0.00,,2013-05-04 05:22:00,
2013-05-04 01:32:00,40.0,38.0,30.38,ESE,119,0.0,0.0,94,0.00,,,0.00,,2013-05-04 05:32:00,
2013-05-04 01:43:00,40.0,38.0,30.38,ESE,119,0.0,0.0,94,0.00,,,0.00,,2013-05-04 05:43:00,
2013-05-04 01:52:00,39.0,37.0,30.37,ESE,119,0.0,0.0,94,0.00,,,0.00,,2013-05-04 05:52:00,
2013-05-04 02:01:00,40.0,39.0,30.37,ESE,118,0.0,0.0,95,0.00,,,0.00,,2013-05-04 06:01:00,
2013-05-04 02:11:00,40.0,39.0,30.37,ESE,118,0.0,0.0,95,0.00,,,0.00,,2013-05-04 06:11:00,
2013-05-04 02:22:00,39.0,38.0,30.37,ESE,119,0.0,0.0,95,0.00,,,0.00,,2013-05-04 06:22:00,
2013-05-04 02:32:00,39.0,37.0,30.36,ESE,118,0.0,0.0,94,0.00,,,0.00,,2013-05-04 06:32:00,
2013-05-04 02:42:00,39.0,37.0,30.36,ESE,118,0.0,0.0,94,0.00,,,0.00,,2013-05-04 06:42:00,
2013-05-04 02:52:00,39.0,38.0,30.36,ESE,119,0.0,0.0,95,0.00,,,0.00,,2013-05-04 06:52:00,
2013-05-04 03:01:00,38.0,37.0,30.36,ESE,119,0.0,0.0,95,0.00,,,0.00,,2013-05-04 07:01:00,
2013-05-04 03:11:00,38.0,37.0,30.36,ESE,119,0.0,0.0,95,0.00,,,0.00,,2013-05-04 07:11:00,
2013-05-04 03:21:00,39.0,38.0,30.35,ESE,118,0.0,0.0,96,0.00,,,0.00,,2013-05-04 07:21:00,
2013-05-04 03:32:00,39.0,38.0,30.35,ESE,119,0.0,0.0,96,0.00,,,0.00,,2013-05-04 07:32:00,
2013-05-04 03:42:00,39.0,38.0,30.35,ESE,119,0.0,0.0,96,0.00,,,0.00,,2013-05-04 07:42:00,
2013-05-04 03:52:00,39.0,38.0,30.35,ESE,118,0.0,0.0,96,0.00,,,0.00,,2013-05-04 07:52:00,
2013-05-04 04:02:00,39.0,38.0,30.35,ESE,119,0.0,0.0,96,0.00,,,0.00,,2013-05-04 08:02:00,
2013-05-04 04:11:00,39.0,38.0,30.35,ESE,119,0.0,0.0,96,0.00,,,0.00,,2013-05-04 08:11:00,
2013-05-04 04:21:00,38.0,37.0,30.35,ESE,119,0.0,0.0,96,0.00,,,0.00,,2013-05-04 08:21:00,
2013-05-04 04:32:00,38.0,37.0,30.35,ESE,118,0.0,0.0,95,0.00,,,0.00,,2013-05-04 08:32:00,
2013-05-04 04:42:00,38.0,37.0,30.35,ESE,118,0.0,0.0,95,0.00,,,0.00,,2013-05-04 08:42:00,
2013-05-04 04:52:00,38.0,37.0,30.35,ESE,118,0.0,0.0,97,0.00,,,0.00,,2013-05-04 08:52:00,
2013-05-04 05:02:00,38.0,37.0,30.35,ESE,119,0.0,0.0,96,0.00,,,0.00,,2013-05-04 09:02:00,
2013-05-04 05:11:00,38.0,37.0,30.35,ESE,119,0.0,0.0,96,0.00,,,0.00,,2013-05-04 09:11:00,
2013-05-04 05:22:00,37.0,36.0,30.35,ESE,118,0.0,0.0,96,0.00,,,0.00,,2013-05-04 09:22:00,
2013-05-04 05:32:00,37.0,36.0,30.35,ESE,118,0.0,0.0,96,0.00,,,0.00,,2013-05-04 09:32:00,
2013-05-04 05:42:00,37.0,36.0,30.35,ESE,118,0.0,0.0,96,0.00,,,0.00,,2013-05-04 09:42:00,
2013-05-04 05:53:00,37.0,36.0,30.35,ESE,118,0.0,0.0,97,0.00,,,0.00,,2013-05-04 09:53:00,
2013-05-04 06:03:00,37.0,36.0,30.36,ESE,119,0.0,0.0,97,0.00,,,0.00,,2013-05-04 10:03:00,
2013-05-04 06:12:00,37.0,36.0,30.36,ESE,119,0.0,0.0,97,0.00,,,0.00,,2013-05-04 10:12:00,
2013-05-04 06:23:00,37.0,36.0,30.36,ESE,119,0.0,0.0,97,0.00,,,0.00,,2013-05-04 10:23:00,
2013-05-04 06:33:00,36.0,35.0,30.36,ESE,118,0.0,0.0,97,0.00,,,0.00,,2013-05-04 10:33:00,
2013-05-04 06:42:00,36.0,35.0,30.36,ESE,118,0.0,0.0,97,0.00,,,0.00,,2013-05-04 10:42:00,
2013-05-04 06:53:00,37.0,36.0,30.37,ESE,119,0.0,0.0,97,0.00,,,0.00,,2013-05-04 10:53:00,
2013-05-04 07:02:00,37.0,36.0,30.37,ESE,119,0.0,0.0,97,0.00,,,0.00,,2013-05-04 11:02:00,
2013-05-04 07:11:00,37.0,36.0,30.37,ESE,119,0.0,0.0,97,0.00,,,0.00,,2013-05-04 11:11:00,
2013-05-04 07:21:00,38.0,37.0,30.37,ESE,119,0.0,0.0,98,0.00,,,0.00,,2013-05-04 11:21:00,
2013-05-04 07:32:00,39.0,38.0,30.37,ESE,118,0.0,0.0,98,0.00,,,0.00,,2013-05-04 11:32:00,
2013-05-04 07:45:00,39.0,38.0,30.37,ESE,118,0.0,0.0,98,0.00,,,0.00,,2013-05-04 11:45:00,
2013-05-04 08:03:00,42.0,41.0,30.38,ESE,119,0.0,1.0,98,0.00,,,0.00,,2013-05-04 12:03:00,
2013-05-04 08:14:00,43.0,42.0,30.38,NNE,13,0.0,1.0,98,0.00,,,0.00,,2013-05-04 12:14:00,
2013-05-04 08:30:00,45.0,44.0,30.38,NW,311,0.0,3.0,98,0.00,,,0.00,,2013-05-04 12:30:00,
2013-05-04 08:37:00,47.0,44.0,30.38,West,259,0.0,2.0,89,0.00,,,0.00,,2013-05-04 12:37:00,
2013-05-04 09:01:00,50.0,44.0,30.38,ESE,117,1.0,5.0,79,0.00,,,0.00,,2013-05-04 13:01:00,
2013-05-04 09:11:00,50.0,44.0,30.38,ESE,117,1.0,5.0,79,0.00,,,0.00,,2013-05-04 13:11:00,
2013-05-04 09:32:00,52.0,45.0,30.38,WNW,291,1.0,5.0,76,0.00,,,0.00,,2013-05-04 13:32:00,
2013-05-04 09:42:00,52.0,45.0,30.38,WNW,291,1.0,5.0,76,0.00,,,0.00,,2013-05-04 13:42:00,
2013-05-04 09:52:00,56.0,46.0,30.39,WNW,294,2.0,4.0,69,0.00,,,0.00,,2013-05-04 13:52:00,
2013-05-04 10:02:00,57.0,46.0,30.39,ESE,122,1.0,3.0,67,0.00,,,0.00,,2013-05-04 14:02:00,
2013-05-04 10:11:00,57.0,46.0,30.39,ESE,122,1.0,3.0,67,0.00,,,0.00,,2013-05-04 14:11:00,
2013-05-04 10:21:00,58.0,46.0,30.38,WNW,297,1.0,4.0,65,0.00,,,0.00,,2013-05-04 14:21:00,
2013-05-04 10:32:00,59.0,46.0,30.38,WNW,288,1.0,2.0,61,0.00,,,0.00,,2013-05-04 14:32:00,
2013-05-04 10:42:00,59.0,46.0,30.38,WNW,288,1.0,2.0,61,0.00,,,0.00,,2013-05-04 14:42:00,
2013-05-04 10:52:00,60.0,45.0,30.37,South,186,1.0,5.0,58,0.00,,,0.00,,2013-05-04 14:52:00,
2013-05-04 11:02:00,62.0,47.0,30.37,SW,236,1.0,4.0,57,0.00,,,0.00,,2013-05-04 15:02:00,
2013-05-04 11:12:00,62.0,47.0,30.37,SW,236,1.0,4.0,57,0.00,,,0.00,,2013-05-04 15:12:00,
2013-05-04 11:22:00,63.0,48.0,30.37,ESE,122,0.0,3.0,57,0.00,,,0.00,,2013-05-04 15:22:00,
2013-05-04 11:33:00,64.0,47.0,30.37,ESE,108,1.0,4.0,55,0.00,,,0.00,,2013-05-04 15:33:00,
2013-05-04 11:43:00,64.0,47.0,30.37,ESE,108,1.0,4.0,55,0.00,,,0.00,,2013-05-04 15:43:00,
2013-05-04 11:53:00,65.0,48.0,30.36,SE,146,1.0,4.0,54,0.00,,,0.00,,2013-05-04 15:53:00,
2013-05-04 12:03:00,65.0,46.0,30.36,WSW,238,0.0,4.0,51,0.00,,,0.00,,2013-05-04 16:03:00,
2013-05-04 12:12:00,65.0,46.0,30.36,WSW,238,0.0,4.0,51,0.00,,,0.00,,2013-05-04 16:12:00,
2013-05-04 12:22:00,66.0,48.0,30.36,SE,136,1.0,4.0,53,0.00,,,0.00,,2013-05-04 16:22:00,
2013-05-04 12:33:00,66.0,46.0,30.36,SE,131,1.0,4.0,49,0.00,,,0.00,,2013-05-04 16:33:00,
2013-05-04 12:42:00,66.0,46.0,30.36,SE,131,1.0,4.0,49,0.00,,,0.00,,2013-05-04 16:42:00,
2013-05-04 12:52:00,66.0,45.0,30.35,NNW,327,2.0,4.0,47,0.00,,,0.00,,2013-05-04 16:52:00,
2013-05-04 13:02:00,65.0,46.0,30.36,NW,312,1.0,5.0,50,0.00,,,0.00,,2013-05-04 17:02:00,
2013-05-04 13:12:00,65.0,46.0,30.36,NW,312,1.0,5.0,50,0.00,,,0.00,,2013-05-04 17:12:00,
2013-05-04 13:22:00,67.0,46.0,30.36,WSW,257,0.0,4.0,47,0.00,,,0.00,,2013-05-04 17:22:00,
2013-05-04 13:32:00,67.0,44.0,30.36,NE,51,1.0,5.0,44,0.00,,,0.00,,2013-05-04 17:32:00,
2013-05-04 13:42:00,67.0,44.0,30.36,NE,51,1.0,5.0,44,0.00,,,0.00,,2013-05-04 17:42:00,
2013-05-04 13:52:00,67.0,43.0,30.35,WNW,294,1.0,4.0,42,0.00,,,0.00,,2013-05-04 17:52:00,
2013-05-04 14:01:00,67.0,43.0,30.35,SE,127,1.0,4.0,42,0.00,,,0.00,,2013-05-04 18:01:00,
2013-05-04 14:12:00,67.0,43.0,30.35,SE,127,1.0,4.0,42,0.00,,,0.00,,2013-05-04 18:12:00,
2013-05-04 14:22:00,66.0,41.0,30.35,ESE,117,2.0,5.0,40,0.00,,,0.00,,2013-05-04 18:22:00,
2013-05-04 14:32:00,67.0,43.0,30.35,ESE,116,0.0,3.0,41,0.00,,,0.00,,2013-05-04 18:32:00,
2013-05-04 14:42:00,67.0,43.0,30.35,ESE,116,0.0,3.0,41,0.00,,,0.00,,2013-05-04 18:42:00,
2013-05-04 14:52:00,67.0,38.0,30.35,SSE,152,2.0,7.0,34,0.00,,,0.00,,2013-05-04 18:52:00,
2013-05-04 15:01:00,66.0,35.0,30.34,ESE,115,1.0,10.0,32,0.00,,,0.00,,2013-05-04 19:01:00,
2013-05-04 15:11:00,66.0,35.0,30.34,ESE,115,1.0,10.0,32,0.00,,,0.00,,2013-05-04 19:11:00,
2013-05-04 15:21:00,66.0,35.0,30.34,ESE,117,1.0,7.0,32,0.00,,,0.00,,2013-05-04 19:21:00,
2013-05-04 15:32:00,67.0,37.0,30.33,West,281,0.0,4.0,33,0.00,,,0.00,,2013-05-04 19:32:00,
2013-05-04 15:42:00,67.0,37.0,30.33,West,281,0.0,4.0,33,0.00,,,0.00,,2013-05-04 19:42:00,
2013-05-04 15:52:00,67.0,34.0,30.33,SE,129,1.0,5.0,29,0.00,,,0.00,,2013-05-04 19:52:00,
2013-05-04 16:02:00,67.0,36.0,30.32,WSW,252,1.0,4.0,32,0.00,,,0.00,,2013-05-04 20:02:00,
2013-05-04 16:11:00,67.0,36.0,30.32,WSW,252,1.0,4.0,32,0.00,,,0.00,,2013-05-04 20:11:00,
2013-05-04 16:22:00,66.0,32.0,30.32,ESE,115,2.0,5.0,28,0.00,,,0.00,,2013-05-04 20:22:00,
2013-05-04 16:32:00,66.0,37.0,30.32,SW,236,1.0,3.0,34,0.00,,,0.00,,2013-05-04 20:32:00,
2013-05-04 16:42:00,66.0,37.0,30.32,SW,236,1.0,3.0,34,0.00,,,0.00,,2013-05-04 20:42:00,
2013-05-04 16:52:00,65.0,34.0,30.31,SE,135,1.0,3.0,31,0.00,,,0.00,,2013-05-04 20:52:00,
2013-05-04 17:02:00,64.0,34.0,30.31,WNW,283,1.0,3.0,32,0.00,,,0.00,,2013-05-04 21:02:00,
2013-05-04 17:12:00,64.0,34.0,30.31,WNW,283,1.0,3.0,32,0.00,,,0.00,,2013-05-04 21:12:00,
2013-05-04 17:22:00,63.0,36.0,30.31,West,262,2.0,4.0,36,0.00,,,0.00,,2013-05-04 21:22:00,
2013-05-04 17:33:00,62.0,37.0,30.31,NW,314,1.0,4.0,39,0.00,,,0.00,,2013-05-04 21:33:00,
2013-05-04 17:43:00,62.0,37.0,30.31,NW,314,1.0,4.0,39,0.00,,,0.00,,2013-05-04 21:43:00,
2013-05-04 17:53:00,60.0,37.0,30.32,SSW,203,1.0,5.0,43,0.00,,,0.00,,2013-05-04 21:53:00,
2013-05-04 18:03:00,60.0,37.0,30.32,SE,134,0.0,4.0,42,0.00,,,0.00,,2013-05-04 22:03:00,
2013-05-04 18:12:00,60.0,37.0,30.32,SE,134,0.0,4.0,42,0.00,,,0.00,,2013-05-04 22:12:00,
2013-05-04 18:22:00,59.0,34.0,30.32,WNW,288,1.0,3.0,39,0.00,,,0.00,,2013-05-04 22:22:00,
2013-05-04 18:33:00,58.0,35.0,30.32,WNW,285,0.0,6.0,42,0.00,,,0.00,,2013-05-04 22:33:00,
2013-05-04 18:42:00,58.0,35.0,30.32,WNW,285,0.0,6.0,42,0.00,,,0.00,,2013-05-04 22:42:00,
2013-05-04 18:52:00,57.0,35.0,30.32,ESE,118,1.0,3.0,44,0.00,,,0.00,,2013-05-04 22:52:00,
2013-05-04 19:02:00,56.0,35.0,30.32,SE,125,0.0,3.0,45,0.00,,,0.00,,2013-05-04 23:02:00,
2013-05-04 19:12:00,56.0,35.0,30.32,SE,125,0.0,3.0,45,0.00,,,0.00,,2013-05-04 23:12:00,
2013-05-04 19:22:00,55.0,34.0,30.33,West,262,0.0,2.0,45,0.00,,,0.00,,2013-05-04 23:22:00,
2013-05-04 19:32:00,53.0,33.0,30.33,SE,136,0.0,3.0,46,0.00,,,0.00,,2013-05-04 23:32:00,
2013-05-04 19:42:00,53.0,33.0,30.33,SE,136,0.0,3.0,46,0.00,,,0.00,,2013-05-04 23:42:00,
2013-05-04 19:52:00,51.0,34.0,30.33,WSW,246,0.0,3.0,51,0.00,,,0.00,,2013-05-04 23:52:00,
2013-05-04 20:02:00,49.0,33.0,30.33,West,262,0.0,2.0,53,0.00,,,0.00,,2013-05-05 00:02:00,
2013-05-04 20:11:00,49.0,33.0,30.33,West,262,0.0,2.0,53,0.00,,,0.00,,2013-05-05 00:11:00,
2013-05-04 20:22:00,47.0,33.0,30.34,WSW,239,0.0,1.0,57,0.00,,,0.00,,2013-05-05 00:22:00,
2013-05-04 20:32:00,46.0,32.0,30.33,WSW,239,0.0,0.0,59,0.00,,,0.00,,2013-05-05 00:32:00,
2013-05-04 20:42:00,46.0,32.0,30.33,WSW,239,0.0,0.0,59,0.00,,,0.00,,2013-05-05 00:42:00,
2013-05-04 20:52:00,45.0,34.0,30.35,ESE,109,0.0,1.0,64,0.00,,,0.00,,2013-05-05 00:52:00,
2013-05-04 21:01:00,44.0,33.0,30.35,ESE,109,0.0,0.0,66,0.00,,,0.00,,2013-05-05 01:01:00,
2013-05-04 21:11:00,44.0,33.0,30.35,ESE,109,0.0,0.0,66,0.00,,,0.00,,2013-05-05 01:11:00,
2013-05-04 21:21:00,43.0,34.0,30.35,ESE,109,0.0,0.0,71,0.00,,,0.00,,2013-05-05 01:21:00,
2013-05-04 21:32:00,42.0,34.0,30.35,ESE,109,0.0,0.0,73,0.00,,,0.00,,2013-05-05 01:32:00,
2013-05-04 21:42:00,42.0,34.0,30.35,ESE,109,0.0,0.0,73,0.00,,,0.00,,2013-05-05 01:42:00,
2013-05-04 21:52:00,41.0,35.0,30.36,ESE,108,0.0,0.0,79,0.00,,,0.00,,2013-05-05 01:52:00,
2013-05-04 22:02:00,41.0,36.0,30.36,ESE,109,0.0,0.0,82,0.00,,,0.00,,2013-05-05 02:02:00,
2013-05-04 22:12:00,41.0,36.0,30.36,ESE,109,0.0,0.0,82,0.00,,,0.00,,2013-05-05 02:12:00,
2013-05-04 22:22:00,40.0,35.0,30.36,ESE,108,0.0,0.0,83,0.00,,,0.00,,2013-05-05 02:22:00,
2013-05-04 22:32:00,39.0,35.0,30.36,ESE,109,0.0,0.0,85,0.00,,,0.00,,2013-05-05 02:32:00,
2013-05-04 22:42:00,39.0,35.0,30.36,ESE,109,0.0,0.0,85,0.00,,,0.00,,2013-05-05 02:42:00,
2013-05-04 22:52:00,39.0,35.0,30.36,ESE,109,0.0,0.0,87,0.00,,,0.00,,2013-05-05 02:52:00,
2013-05-04 23:01:00,39.0,36.0,30.36,ESE,108,0.0,0.0,88,0.00,,,0.00,,2013-05-05 03:01:00,
2013-05-04 23:11:00,39.0,36.0,30.36,ESE,108,0.0,0.0,88,0.00,,,0.00,,2013-05-05 03:11:00,
2013-05-04 23:22:00,37.0,34.0,30.36,ESE,108,0.0,0.0,89,0.00,,,0.00,,2013-05-05 03:22:00,
2013-05-04 23:33:00,37.0,34.0,30.36,ESE,108,0.0,0.0,89,0.00,,,0.00,,2013-05-05 03:33:00,
2013-05-04 23:42:00,37.0,34.0,30.36,ESE,108,0.0,0.0,89,0.00,,,0.00,,2013-05-05 03:42:00,
2013-05-04 23:53:00,36.0,33.0,30.35,ESE,108,0.0,0.0,90,0.00,,,0.00,,2013-05-05 03:53:00,